Flag for Poland Weather past 2 weeks in Radom, Poland

Now
35 °F

Overcast.


Feels Like: 35 °F
Forecast: 32 / 45 °F
Wind: 2 mph from West

Location: Kielce

Current Time: Mar 6, 2015 at 3:18:17 PM

Latest Report: Mar 6, 2015 at 2:00 PM


Visibility: 11 mi

Pressure: 30.58 "Hg

Humidity: 79%

Dew point: 29 °F

Location of RadomLocation

Historic Weather in Radom — Graph

°F

Radom temperature yesterday

Maximum temperature yesterday: 40 °F (at 1:00 PM)
Minimum temperature yesterday: 26 °F (at 6:00 AM)
Average temperature yesterday: 32 °F

Past Weeks' High & Low Weather Summary

 TemperatureHumidityPressure
High53 °F (Feb 22, 2:00 PM)100% (Feb 27, 1:00 AM)30.60 "Hg (Feb 27, 1:00 AM)
Low25 °F (Feb 22, 6:00 AM)45% (Feb 20, 3:00 PM)29.53 "Hg (Mar 2, 2:00 PM)
Average37 °F86%29.99 "Hg
* Reported Feb 19 2:00 PM — Mar 6 2:00 PM, Radom, Weather by CustomWeather, © 2015

Note: Actual official high and low records may vary slightly from our data, if they occured in-between our weather recording intervals... More about our weather records

Advertising

Radom weather history for previous 24 hours

 ConditionsComfort  
Time TempWeatherWind HumidityBarometerVisibility
2:00 PM
Fri, Mar 6
35 °FOvercast.2 mph79%30.58 "Hg11 mi
1:00 PM34 °FOvercast.2 mph85%30.59 "Hg8 mi
12:00 PM33 °FFog.2 mph87%30.60 "Hg5 mi
11:00 AM32 °FFog.2 mph87%30.60 "Hg6 mi
10:00 AM32 °FFog.1 mph88%30.59 "Hg5 mi
9:00 AM31 °FFog.1 mph93%30.58 "Hg5 mi
8:00 AM30 °FFog.2 mph98%30.58 "Hg2 mi
7:00 AM29 °FFog.2 mph99%30.56 "Hg1 mi
6:00 AM29 °FFog.3 mph100%30.55 "Hg1 mi
5:00 AM29 °FFog.2 mph98%30.53 "Hg1 mi
4:00 AM30 °FFog.1 mph98%30.53 "Hg2 mi
3:00 AM29 °FFog.1 mph98%30.52 "Hg1 mi
2:00 AM28 °FFog.No wind98%30.52 "Hg1 mi
1:00 AM28 °FFog.2 mph97%30.52 "Hg1 mi
12:00 AM29 °FFog.1 mph96%30.51 "Hg1 mi
11:00 PM
Thu, Mar 5
30 °FFog.2 mph97%30.49 "Hg1 mi
9:00 PM33 °FFog.2 mph94%30.47 "Hg2 mi
8:00 PM33 °FFog.1 mph93%30.45 "Hg2 mi
7:00 PM33 °FOvercast.2 mph94%30.44 "Hg4 mi
6:00 PM34 °FLight mixture of precip. Overcast.2 mph94%30.42 "Hg2 mi
5:00 PM35 °FSleet. Overcast.5 mph87%30.40 "Hg2 mi
4:00 PM35 °FOvercast.5 mph90%30.39 "Hg7 mi
3:00 PM35 °FSleet. Overcast.5 mph79%30.39 "Hg1 mi
Weather by CustomWeather, © 2015

See weather overviewHow to use our weather pages